Location: Partizánske
(48.6285°N, 18.3769°E)
Time: 18:31:10
(UTC+02:00)

A-11 Canister half - Visible Passes

Search period start: 29 June 2022 00:00
Search period end: 09 July 2022 00:00
Orbit: 1527 x 1682 km, 47.3° (Epoch: 28 June)

Date Brightness Start Highest point End Pass type
(mag) Time Alt. Az. Time Alt. Az. Time Alt. Az.
29 Jun 9.5 00:37:35 10° WNW 00:45:47 37° SW 00:50:00 25° S visible
29 Jun 9.0 22:10:45 10° W 22:20:05 74° SSW 22:29:21 10° ESE visible
30 Jun 9.4 00:15:52 10° WNW 00:24:11 38° SW 00:28:36 25° S visible
30 Jun 10.5 02:26:00 10° WSW 02:26:50 10° WSW 02:26:50 10° WSW visible
30 Jun 9.0 21:49:03 10° W 21:58:26 75° SSW 22:07:42 10° ESE visible
30 Jun 9.4 23:54:10 10° WNW 00:02:34 40° SW 00:07:21 24° SSE visible
01 Jul 10.5 02:03:01 10° WSW 02:05:24 11° WSW 02:05:35 11° SW visible
01 Jul 9.0 21:27:22 10° W 21:36:46 76° SSW 21:46:03 10° ESE visible
01 Jul 9.4 23:32:28 10° WNW 23:40:58 41° SW 23:46:12 23° SSE visible
02 Jul 10.4 01:40:39 10° WSW 01:43:51 12° WSW 01:44:26 12° SW visible
02 Jul 9.4 23:10:46 10° WNW 23:19:21 43° SW 23:25:07 21° SSE visible
03 Jul 10.4 01:18:29 10° W 01:22:17 13° SW 01:23:22 13° SW visible
03 Jul 9.4 22:49:03 10° WNW 22:57:44 45° SW 23:04:07 19° SSE visible
04 Jul 10.4 00:56:24 10° W 01:00:44 14° SW 01:02:22 14° SW visible
04 Jul 9.4 22:27:21 10° WNW 22:36:07 46° SW 22:43:10 16° SSE visible
05 Jul 10.4 00:34:24 10° W 00:39:11 15° SW 00:41:25 14° SW visible
05 Jul 9.4 22:05:40 10° WNW 22:14:30 48° SSW 22:22:16 14° SE visible
06 Jul 10.3 00:12:27 10° W 00:17:36 16° SW 00:20:32 14° SSW visible
06 Jul 9.4 21:43:57 10° WNW 21:52:52 50° SSW 22:01:26 11° SE visible
06 Jul 10.4 23:50:32 10° W 23:56:03 17° SW 23:59:43 14° SSW visible
07 Jul 9.4 21:22:16 10° WNW 21:31:14 51° SSW 21:40:05 10° SE visible
07 Jul 10.4 23:28:38 10° W 23:34:28 19° SW 23:38:56 13° SSW visible
08 Jul 10.4 23:06:47 10° W 23:12:54 20° SW 23:18:12 12° SSW visible
